Starlink 6077

operational
NORAD ID: 56097 Int'l Des: 2023-046 Owner: SPXS Country: US Constellation: starlink
LEOCIRCULAR

About Starlink 6077

Description loading...

Live Position

Loading 3D Globe...

Upcoming Passes

Altitude History

Altitude vs Time

uPlot chart will show altitude changes over time

Two-Line Element Set

1 56097U 23046E 25303.75248789 -.00000799 00000-0 -44083-4 0 9995
2 56097 43.0041 93.1442 0001135 273.4478 86.6234 15.02540375143110
Epoch: Oct 30, 2025 • Age: 23 hours

Current Status

Altitude 562.8 km
Velocity 7.59 km/s
Sub-Earth Point 42.27°N, 127.71°W
Launch Date Mar 29, 2023
Age 2.5 years
Type internet

Technical Details

Classification Payload
Mass 305.00 kg
Dry Mass 290.00 kg
Total Mass 305.00 kg
Length 0.20 m
Diameter 2.80 m
Span 9.00 m
Shape Box + pan
Manufacturer SPXS
Bus Type Starlink
Phase Status In Orbit
Owner/State SPXS/US

Large Constellations

Loading constellations...